STARLINK-5653 (55345 NORAD) Tracking and Keplerian Element Data

This shows tracking and keplerian element data for the satellite.

Feedback or suggestion? Click here.




ElementValue
Catalog55345
NameSTARLINK-5653
Epoch Orbit1619
Epoch Day127.00001157
Epoch Year2023
RAAN166.081
Inclination42.9978
Eccentricity0.0001226
Argument of Perigee267.0508
Mean Anonmoly353.1666
Mean Motion15.06477057
Decay Rate-0.00867938
L11 55345U 23013Q 23127.00001157 -.00867938 00000+0 -62275-1 0 9995
L22 55345 42.9978 166.0810 0001226 267.0508 353.1666 15.06477057 16193



Live tracking and technical data element details for STARLINK-5653 (NORAD 55345). STARLINK-5653 can be tracked NOW for your location showing map with azimuth and elevation plus other details from your city location.







IsCatalogInMostPopularTable: catalog: 55345, numindb: 1
Update: records affected: 1



GetName: 55345 STARLINK-5653

Hit Count: updated at: Mon, 05 Jun 2023 19:39:12 GMT